TimeCDT,TemperatureF,Dew PointF,Humidity,Sea Level PressureIn,VisibilityMPH,Wind Direction,Wind SpeedMPH,Gust SpeedMPH,PrecipitationIn,Events,Conditions,WindDirDegrees,DateUTC
12:15 AM,57.4,16.9,21,30.09,7.0,NE,5.8,-,N/A,,Clear,50,2013-03-25 05:15:00
12:35 AM,57.4,18.3,22,30.08,7.0,ENE,6.9,-,N/A,,Clear,60,2013-03-25 05:35:00
12:55 AM,57.0,19.4,23,30.08,7.0,ENE,6.9,-,N/A,,Clear,60,2013-03-25 05:55:00
1:15 AM,56.7,20.3,24,30.09,7.0,NE,5.8,-,N/A,,Clear,50,2013-03-25 06:15:00
1:55 AM,55.9,24.4,30,30.10,7.0,NE,6.9,-,N/A,,Clear,40,2013-03-25 06:55:00
2:15 AM,57.7,26.4,30,30.10,7.0,NE,10.4,-,N/A,,Clear,40,2013-03-25 07:15:00
2:35 AM,57.4,28.2,33,30.11,7.0,NE,11.5,-,N/A,,Clear,40,2013-03-25 07:35:00
2:55 AM,57.4,29.1,34,30.11,10.0,NE,12.7,17.3,N/A,,Clear,40,2013-03-25 07:55:00
3:15 AM,57.0,29.3,35,30.12,7.0,NNE,13.8,-,N/A,,Clear,30,2013-03-25 08:15:00
3:35 AM,56.7,28.0,33,30.13,10.0,NNE,11.5,-,N/A,,Clear,30,2013-03-25 08:35:00
3:55 AM,55.8,30.0,37,30.13,10.0,NNE,10.4,17.3,N/A,,Clear,30,2013-03-25 08:55:00
4:15 AM,54.5,31.1,41,30.14,7.0,NNE,10.4,-,N/A,,Clear,30,2013-03-25 09:15:00
5:35 AM,53.8,30.7,41,30.15,7.0,NE,9.2,-,N/A,,Clear,40,2013-03-25 10:35:00
5:55 AM,54.0,30.2,40,30.16,7.0,NE,10.4,-,N/A,,Clear,40,2013-03-25 10:55:00
6:15 AM,54.0,29.3,39,30.16,7.0,NE,11.5,-,N/A,,Clear,50,2013-03-25 11:15:00
6:35 AM,53.8,28.9,39,30.18,7.0,NE,10.4,-,N/A,,Clear,40,2013-03-25 11:35:00
6:55 AM,53.6,28.4,38,30.18,7.0,NE,9.2,-,N/A,,Clear,40,2013-03-25 11:55:00
7:15 AM,53.1,28.6,39,30.20,7.0,NNE,8.1,-,N/A,,Clear,30,2013-03-25 12:15:00
7:35 AM,52.7,28.9,40,30.20,7.0,NNE,9.2,-,N/A,,Clear,30,2013-03-25 12:35:00
7:55 AM,52.3,29.7,42,30.22,7.0,NNE,10.4,-,N/A,,Clear,20,2013-03-25 12:55:00
8:15 AM,52.7,30.7,43,30.22,5.0,NNE,10.4,-,N/A,,Haze,20,2013-03-25 13:15:00
9:15 AM,56.3,32.4,40,30.26,7.0,NNE,12.7,-,N/A,,Clear,20,2013-03-25 14:15:00
11:35 AM,65.1,38.7,38,30.29,5.0,NE,9.2,-,N/A,,Haze,40,2013-03-25 16:35:00
11:55 AM,67.1,38.3,35,30.29,7.0,NE,13.8,19.6,N/A,,Overcast,40,2013-03-25 16:55:00
12:15 PM,67.5,38.5,35,30.28,7.0,ENE,12.7,18.4,N/A,,Mostly Cloudy,60,2013-03-25 17:15:00
12:35 PM,66.9,38.5,35,30.28,7.0,ENE,11.5,20.7,N/A,,Overcast,60,2013-03-25 17:35:00
12:55 PM,67.5,39.6,36,30.27,7.0,NE,10.4,19.6,N/A,,Overcast,50,2013-03-25 17:55:00
1:15 PM,67.5,40.1,37,30.26,7.0,NE,13.8,-,N/A,,Overcast,40,2013-03-25 18:15:00
1:35 PM,67.6,39.7,36,30.25,7.0,NE,13.8,21.9,N/A,,Overcast,40,2013-03-25 18:35:00
1:55 PM,68.4,38.7,34,30.25,7.0,NE,12.7,20.7,N/A,,Overcast,40,2013-03-25 18:55:00
2:15 PM,68.2,39.2,35,30.24,7.0,ENE,13.8,21.9,N/A,,Mostly Cloudy,60,2013-03-25 19:15:00
2:35 PM,68.4,38.3,33,30.23,7.0,ENE,10.4,23.0,N/A,,Mostly Cloudy,60,2013-03-25 19:35:00
2:55 PM,67.5,37.8,34,30.23,5.0,NE,10.4,18.4,N/A,,Haze,50,2013-03-25 19:55:00
3:15 PM,68.0,38.3,34,30.22,5.0,NE,15.0,23.0,N/A,,Haze,40,2013-03-25 20:15:00
3:35 PM,66.9,39.4,36,30.22,7.0,NE,12.7,19.6,N/A,,Mostly Cloudy,50,2013-03-25 20:35:00
3:55 PM,67.5,39.0,35,30.21,7.0,NE,16.1,20.7,N/A,,Mostly Cloudy,50,2013-03-25 20:55:00
4:15 PM,67.5,39.2,36,30.21,5.0,ENE,18.4,23.0,N/A,,Haze,70,2013-03-25 21:15:00
5:15 PM,66.2,40.1,38,30.20,7.0,ENE,17.3,-,N/A,,Overcast,60,2013-03-25 22:15:00
5:55 PM,64.8,39.9,40,30.20,7.0,ENE,15.0,-,N/A,,Overcast,70,2013-03-25 22:55:00
6:15 PM,64.0,40.1,41,30.21,10.0,ENE,13.8,-,N/A,,Overcast,70,2013-03-25 23:15:00
6:35 PM,63.5,40.1,42,30.21,7.0,ENE,13.8,-,N/A,,Overcast,70,2013-03-25 23:35:00
6:55 PM,62.8,40.1,43,30.22,5.0,ENE,13.8,-,N/A,,Haze,70,2013-03-25 23:55:00
7:15 PM,62.6,39.7,43,30.23,5.0,East,13.8,-,N/A,,Haze,80,2013-03-26 00:15:00
7:35 PM,61.9,39.7,44,30.24,5.0,ENE,15.0,19.6,N/A,,Haze,70,2013-03-26 00:35:00
7:55 PM,61.2,39.7,45,30.25,7.0,ENE,11.5,-,N/A,,Overcast,60,2013-03-26 00:55:00
8:15 PM,60.8,39.7,46,30.26,7.0,ENE,15.0,-,N/A,,Overcast,70,2013-03-26 01:15:00
8:35 PM,60.3,38.5,44,30.27,7.0,ENE,15.0,-,N/A,,Overcast,60,2013-03-26 01:35:00
8:55 PM,60.1,37.6,43,30.28,7.0,ENE,13.8,-,N/A,,Overcast,70,2013-03-26 01:55:00
9:35 PM,59.9,36.5,42,30.29,7.0,ENE,13.8,-,N/A,,Overcast,70,2013-03-26 02:35:00
9:55 PM,59.5,35.2,40,30.30,7.0,ENE,11.5,-,N/A,,Overcast,60,2013-03-26 02:55:00
10:15 PM,59.5,34.7,39,30.31,7.0,ENE,11.5,-,N/A,,Overcast,70,2013-03-26 03:15:00
10:35 PM,59.4,34.0,39,30.31,7.0,ENE,11.5,16.1,N/A,,Overcast,60,2013-03-26 03:35:00
10:55 PM,59.2,34.0,39,30.32,10.0,ENE,9.2,-,N/A,,Overcast,60,2013-03-26 03:55:00
11:15 PM,59.0,34.2,39,30.33,7.0,ENE,6.9,-,N/A,,Overcast,70,2013-03-26 04:15:00
11:35 PM,58.3,34.3,41,30.33,10.0,ENE,5.8,-,N/A,,Mostly Cloudy,70,2013-03-26 04:35:00
11:55 PM,56.8,34.7,43,30.33,7.0,ENE,4.6,-,N/A,,Scattered Clouds,70,2013-03-26 04:55:00